Wind_Speed
8 10 11 11 11 10 10 9 8 7 5 4 4 4 5 6 8 9 11 13 15 16 18 19 20 21 22 22 23 23 24 25 25 26 27 28 28 27 26 26 25 24 25 25 24 26 25 24 23 23 23 23 24 23 22 22 22 23 25 25 26 25 24 22 22 24 27 28 28 29 28 27 26 25 24 20 18 17 17 19 19 16 14 14 17
9 11 12 12 11 10 9 9 8 7 6 5 6 7 8 10 11 13 14 16 17 19 20 20 21 22 22 23 24 24 24 24 25 26 27 28 28 27 26 25 25 24 25 24 24 26 26 23 22 23 23 23 23 22 22 21 22 24 25 25 24 25 24 21 19 21 23 25 27 29 29 26 24 22 21 19 18 19 19 20 20 17 13 13 16
10 12 13 12 12 11 10 10 8 8 8 8 8 10 12 13 15 16 17 18 19 20 21 22 23 23 24 24 25 25 25 25 26 26 28 28 27 27 26 25 25 23 24 24 23 25 25 22 21 22 22 22 22 21 20 20 22 24 24 25 24 23 23 20 17 17 20 23 23 24 25 26 26 22 18 18 17 19 19 17 17 15 13 14 16
12 14 15 14 13 12 12 12 11 10 10 11 11 13 15 16 18 19 20 20 21 22 24 25 26 26 27 27 26 27 26 26 27 27 28 28 27 27 26 24 24 23 23 24 23 24 24 22 20 21 21 21 21 20 19 20 22 22 22 23 23 23 22 20 17 16 18 19 17 17 19 20 20 17 18 18 14 15 18 15 13 15 15 16 17
15 15 16 17 16 15 13 13 13 13 13 14 15 16 17 18 19 21 21 22 23 24 26 27 28 28 28 28 27 28 28 27 28 28 28 28 27 28 26 23 23 23 23 24 23 23 24 22 19 19 19 19 20 19 19 19 20 20 20 21 22 21 22 22 19 15 15 15 14 15 14 12 14 19 24 24 17 15 18 17 16 17 18 18 19
18 17 17 19 19 18 16 16 16 16 16 17 18 18 19 20 21 22 23 23 25 25 27 27 28 28 28 28 29 29 29 29 28 28 28 27 27 27 25 22 21 21 22 23 24 23 24 23 20 19 19 18 18 19 18 19 19 18 19 20 20 19 21 23 20 17 16 15 14 14 13 13 19 23 23 25 26 23 20 20 21 21 21 21 20
20 20 19 20 21 21 20 19 19 19 20 20 20 20 21 22 22 23 23 24 25 25 26 27 27 28 28 29 29 30 30 30 29 28 27 26 26 26 25 21 19 20 21 22 23 23 23 23 20 18 19 18 18 19 18 18 19 18 18 19 20 19 19 21 21 19 18 17 15 17 18 19 21 22 19 23 29 30 27 25 25 25 25 25 24
21 21 21 21 23 24 23 22 22 22 23 23 22 22 22 23 23 23 24 24 25 25 25 26 27 27 28 29 29 30 31 30 28 26 25 25 25 25 24 21 19 19 20 20 21 22 22 23 20 18 18 18 18 18 18 18 18 18 18 19 19 19 18 19 20 19 19 19 18 18 20 21 23 23 22 21 24 31 35 32 29 29 28 28 28
22 23 22 22 24 26 25 24 24 25 27 27 24 23 24 24 25 24 24 25 25 26 26 25 27 28 28 29 30 30 31 29 27 25 24 23 24 25 24 22 20 19 18 19 20 21 21 21 20 18 18 18 18 18 17 17 18 18 18 18 18 18 18 18 19 18 18 19 19 19 20 21 22 23 24 23 23 28 34 31 28 29 30 29 28
25 26 25 24 24 26 27 28 28 29 30 29 27 25 26 26 26 25 26 26 27 27 26 26 28 29 29 29 31 31 31 29 26 24 23 23 24 24 23 22 21 19 17 18 19 20 21 21 19 18 18 17 17 17 17 17 17 17 17 17 18 18 17 17 18 18 18 18 18 19 20 21 22 23 22 23 23 24 28 29 27 29 32 33 30
26 27 27 26 25 27 30 31 31 32 33 32 30 28 28 28 28 27 27 27 27 27 26 27 29 30 30 30 31 31 31 29 26 25 23 23 24 24 24 23 21 19 18 18 18 19 20 20 19 18 17 17 16 17 17 16 17 17 17 17 17 17 17 17 18 18 18 18 17 17 19 19 20 22 22 22 22 23 27 31 31 30 33 37 34
26 27 28 27 28 30 33 34 33 34 36 35 32 31 30 31 30 29 27 27 27 27 27 29 30 30 30 30 30 31 30 28 26 25 24 23 24 24 24 24 22 20 19 19 19 20 20 19 19 18 17 17 16 16 16 16 16 17 17 17 17 17 17 17 18 18 18 18 18 17 18 19 19 20 22 22 24 25 27 32 34 31 34 38 36
27 28 29 29 30 33 35 36 36 37 38 37 34 33 33 33 32 30 28 27 27 27 27 29 30 30 31 31 30 31 30 28 26 25 24 23 23 24 24 24 23 21 20 20 19 20 20 19 18 18 17 17 16 16 16 16 17 17 17 17 17 17 16 17 18 18 18 18 18 17 17 18 19 20 21 22 24 25 27 31 33 30 33 39 37
28 29 30 31 32 33 35 37 37 39 39 39 37 36 35 34 33 32 29 27 26 27 27 29 30 30 32 31 30 30 30 29 27 26 24 23 23 24 25 24 24 22 21 21 20 20 20 19 18 18 17 17 17 16 17 17 17 17 18 18 17 17 16 17 18 18 18 18 18 18 18 18 19 19 20 22 23 24 26 27 30 30 32 36 37
30 30 31 32 33 34 36 38 39 40 42 42 41 39 37 36 35 33 31 28 27 26 27 28 29 31 32 31 31 30 30 30 29 27 24 23 23 24 25 24 23 22 22 21 20 20 20 18 18 18 17 17 17 17 17 17 17 18 18 18 17 17 17 18 18 18 18 18 17 18 19 19 18 18 18 20 21 23 24 24 25 28 32 35 36
30 31 32 33 33 35 37 39 41 42 44 45 43 40 39 37 35 34 32 29 28 27 27 28 29 31 32 31 31 31 31 30 29 28 25 23 23 24 24 24 24 22 22 21 20 19 19 18 18 18 18 18 18 18 18 18 18 18 18 18 18 17 18 18 18 18 18 18 18 18 19 19 18 17 18 19 20 21 22 23 24 25 28 33 34
30 31 32 33 34 35 37 39 41 43 45 45 44 42 40 37 35 35 34 32 30 28 27 28 30 31 31 31 31 31 32 32 29 28 26 24 23 23 24 24 23 22 21 21 20 19 18 18 18 18 18 18 18 18 18 18 18 19 19 19 18 17 18 19 18 19 19 18 19 19 19 20 19 19 19 19 20 21 22 23 24 25 25 28 31
32 33 33 34 35 36 37 39 41 43 44 45 44 43 41 38 36 35 35 34 32 30 29 29 31 31 30 31 31 32 34 33 30 28 27 25 24 23 23 24 23 22 21 21 20 19 18 18 18 18 18 18 18 18 18 18 19 19 19 19 19 18 19 20 19 19 19 19 20 20 20 20 20 20 20 20 20 21 22 22 23 24 24 27 28
34 34 35 35 35 36 37 39 41 43 44 45 43 42 40 38 36 35 36 36 34 32 31 31 31 30 30 30 31 33 35 34 31 28 27 26 25 23 23 23 23 22 22 21 20 19 18 18 18 18 18 18 18 18 18 19 19 19 19 19 19 19 20 21 19 19 20 20 21 21 21 21 21 21 21 21 20 20 21 22 23 23 23 25 26
35 35 35 35 35 36 37 38 40 42 44 44 43 42 40 38 37 37 38 37 36 34 32 31 31 30 29 30 31 32 34 34 31 28 27 26 25 24 23 23 22 22 22 21 20 19 18 19 19 19 19 18 19 19 18 19 20 20 20 20 20 20 21 21 20 20 20 21 22 22 22 21 21 22 22 21 21 21 21 21 21 22 21 22 24
35 36 36 36 36 36 35 36 38 40 42 43 42 42 42 40 40 40 39 39 37 35 33 32 31 30 29 30 30 31 33 33 31 29 27 26 25 24 23 23 22 22 22 21 20 19 19 19 19 19 19 19 19 19 19 19 20 20 20 20 20 21 21 22 22 22 21 21 22 23 23 22 21 22 23 22 22 21 20 20 19 20 21 20 21
37 37 36 36 35 34 34 34 36 38 40 41 42 43 43 43 42 41 41 40 38 36 33 32 32 32 31 30 30 31 32 33 32 30 28 26 25 24 23 23 23 23 22 21 20 19 19 19 19 19 19 19 19 19 19 19 20 20 20 20 21 21 22 22 23 23 22 22 23 24 24 23 22 23 23 23 23 22 21 21 20 20 22 21 21
37 36 35 34 33 32 33 34 35 36 38 40 42 44 44 44 43 42 42 41 39 36 34 33 33 33 31 30 30 31 32 33 32 30 28 26 25 24 23 23 23 22 22 21 20 20 19 20 19 19 19 19 19 19 19 19 20 20 21 21 21 21 22 23 23 23 23 23 24 25 25 24 23 24 24 23 23 23 21 22 21 20 22 22 21
33 32 31 30 30 32 34 35 36 37 38 40 41 42 43 43 42 42 42 41 39 37 35 34 34 32 30 29 29 30 32 33 32 30 28 27 25 24 24 24 23 23 22 21 20 20 20 20 20 20 19 19 19 19 19 19 19 20 21 21 21 21 22 23 23 23 23 23 24 25 25 24 24 25 25 24 23 23 22 21 22 22 22 24 23
30 29 28 29 32 34 36 36 36 37 38 39 40 42 43 43 43 42 42 41 39 37 36 35 33 30 29 29 29 30 32 34 32 30 29 27 26 25 24 24 24 23 23 22 21 21 20 20 20 20 20 20 20 20 19 19 19 20 21 22 22 23 23 23 24 24 24 24 24 25 24 23 24 25 25 24 23 22 21 21 23 23 23 24 25
29 29 30 32 33 34 34 33 33 33 34 36 39 41 41 41 41 41 42 41 40 38 35 33 30 30 30 30 29 30 33 33 32 31 29 27 26 25 25 25 24 24 23 22 22 21 20 20 21 21 20 20 20 20 20 20 20 20 21 22 22 23 23 24 24 24 24 24 24 24 24 23 23 24 24 24 23 22 22 22 23 24 23 24 26
30 31 32 31 30 30 30 29 29 30 32 34 36 37 38 39 40 41 41 41 40 37 34 32 30 31 30 29 29 31 33 32 31 30 29 27 26 26 26 25 25 25 24 23 22 21 21 21 21 21 20 20 20 20 20 20 21 21 21 22 23 23 23 23 23 23 23 23 23 23 23 23 23 23 23 22 22 22 23 23 24 24 24 25 26
31 30 29 28 28 29 29 29 31 34 36 37 37 38 38 38 38 39 40 40 39 36 33 32 31 31 30 28 29 32 32 31 30 30 29 28 27 27 26 26 26 26 24 23 22 21 21 21 21 21 20 20 20 20 20 20 21 21 21 22 22 23 23 23 23 23 22 23 23 23 24 23 23 23 23 22 22 22 23 24 24 24 24 26 27
31 30 28 29 31 31 31 34 37 38 39 39 39 40 39 38 37 38 38 38 37 34 33 32 31 30 28 27 30 33 32 30 30 30 29 28 27 27 28 28 27 26 24 23 22 22 22 22 21 21 20 21 21 20 20 20 21 21 21 22 22 22 22 23 23 23 23 24 24 25 25 24 24 24 24 24 24 23 23 25 24 23 25 27 27
32 31 31 31 32 32 33 36 37 38 39 40 40 40 39 37 35 35 35 35 34 33 33 32 31 28 26 29 33 34 31 29 30 30 29 28 28 29 29 28 27 25 24 23 22 22 22 22 22 21 21 21 21 20 20 20 20 21 21 22 23 23 23 24 26 26 27 27 27 28 27 27 27 27 27 27 26 25 24 26 26 25 26 27 29
33 30 30 31 33 34 36 38 39 41 42 42 43 42 39 36 33 32 33 33 33 32 31 29 26 23 26 32 34 32 30 29 30 30 29 29 29 29 29 28 26 25 24 23 23 22 22 22 22 22 22 21 21 20 19 20 19 19 19 20 22 23 24 25 27 27 28 29 30 30 30 30 30 30 30 28 26 25 24 26 27 28 29 29 32
29 29 32 34 36 37 39 40 41 42 41 41 42 40 38 36 33 31 31 31 31 29 26 22 21 25 31 33 32 29 28 29 30 30 30 29 29 29 28 27 26 25 24 23 23 23 23 22 22 22 22 22 21 20 19 20 20 19 18 18 20 23 25 25 26 27 28 30 30 31 32 32 31 30 29 28 27 27 27 28 29 30 30 31 32
30 33 34 36 37 38 39 40 40 40 40 40 38 37 35 34 31 30 29 29 27 23 20 20 25 30 32 31 29 27 28 29 29 29 29 29 28 28 27 26 25 25 24 24 23 23 23 22 22 23 22 22 21 20 20 20 20 19 17 16 19 23 25 26 28 29 30 30 31 31 32 32 31 29 28 27 28 28 29 30 31 32 33 33 33
32 33 34 36 37 38 39 39 40 40 40 40 39 38 36 33 31 29 28 25 21 18 20 25 28 29 29 27 26 26 27 28 28 28 28 28 28 27 27 26 25 25 24 24 23 23 23 23 22 23 23 23 22 20 20 20 20 19 17 17 20 24 26 28 30 30 31 30 30 29 30 30 29 28 27 27 27 27 28 28 29 31 33 34 35
33 34 36 37 37 39 40 41 41 42 42 42 42 41 38 34 30 27 23 18 17 21 25 27 27 26 25 24 25 25 26 27 27 27 27 27 27 27 26 25 25 25 24 24 23 23 23 23 22 23 24 24 22 20 20 20 20 18 17 18 22 26 28 30 31 31 30 29 28 28 28 29 28 27 26 26 26 27 28 29 29 30 31 33 35
34 36 36 37 38 41 43 43 43 44 44 42 39 35 31 26 21 18 16 18 24 27 27 26 25 24 23 23 24 24 25 26 26 26 27 27 27 26 25 25 25 25 25 24 24 24 24 23 22 22 24 24 22 19 20 20 20 18 17 20 23 26 27 28 29 29 28 28 28 28 28 28 27 27 27 27 26 27 28 30 31 32 32 33 34
34 34 36 39 42 43 43 43 41 41 39 36 32 26 22 19 17 19 24 28 30 29 27 25 24 23 23 23 23 24 25 25 26 26 26 26 26 25 24 24 24 25 25 24 24 24 24 24 23 22 23 24 22 20 19 20 20 18 17 20 23 25 25 26 26 27 27 27 28 28 27 27 28 28 28 28 26 25 27 30 31 32 33 34 35
35 37 41 43 44 43 41 40 39 39 36 32 29 26 23 24 26 28 30 31 29 27 25 24 23 23 23 23 24 24 25 25 26 26 26 25 25 25 24 23 24 25 25 24 25 25 24 24 24 23 23 24 24 21 19 20 20 18 17 19 22 23 24 24 25 26 26 27 29 28 27 26 26 26 27 27 25 26 28 30 31 33 35 36 37
39 41 42 43 41 39 38 37 37 37 34 30 28 27 28 30 31 30 29 27 25 25 24 23 22 22 23 24 24 25 25 25 25 26 25 25 24 23 23 23 23 25 25 25 24 25 25 24 23 23 23 23 24 22 19 19 20 18 16 17 19 21 22 23 24 26 27 27 28 26 23 21 23 25 27 27 27 27 29 31 32 34 36 36 36
40 40 41 40 37 35 36 36 35 34 33 31 30 30 32 32 29 26 24 24 24 23 22 21 22 22 23 24 25 25 25 24 24 24 24 23 23 22 22 22 23 24 25 25 25 25 26 25 23 23 23 23 23 23 20 19 20 19 16 16 18 20 21 23 24 25 26 26 25 24 24 25 28 29 30 30 28 27 27 30 31 32 33 34 35
38 39 37 35 33 34 35 35 34 34 34 34 32 32 30 27 24 22 23 23 23 22 21 21 22 23 24 24 24 24 23 23 23 22 22 22 21 21 22 22 24 24 25 26 25 25 26 26 24 23 23 22 22 22 20 19 19 19 16 15 18 19 21 22 24 24 24 25 26 27 29 31 32 33 32 31 28 26 26 29 30 30 32 33 33
38 36 33 32 34 37 36 35 34 32 30 29 29 27 24 21 22 24 24 24 23 23 23 22 22 23 24 24 23 23 22 22 22 22 23 23 22 22 22 23 24 25 26 26 26 25 26 26 25 23 23 22 20 20 20 19 19 18 16 15 16 18 19 21 23 24 25 27 29 31 32 32 32 31 30 27 26 27 29 31 31 32 33 33 33
35 30 30 34 38 37 35 33 32 29 26 25 25 23 22 23 25 26 24 24 24 24 23 23 23 23 23 23 22 22 22 22 23 23 24 24 22 22 22 23 24 25 26 26 26 25 26 27 26 24 23 21 19 18 18 19 19 18 17 15 15 16 18 19 22 26 28 30 31 32 32 31 29 27 26 26 27 30 31 31 31 31 33 35 37
28 28 33 38 38 34 32 31 28 26 25 24 23 24 25 27 27 25 24 24 24 24 24 23 23 22 22 22 22 21 21 22 22 23 23 23 22 22 22 23 23 24 25 26 25 25 26 26 26 25 23 21 19 18 17 18 18 18 18 18 17 17 18 20 23 27 28 29 30 29 29 28 26 26 26 28 29 30 29 29 30 31 33 34 35
26 33 38 38 33 30 30 29 27 27 27 25 24 26 27 26 25 23 22 22 22 23 23 23 22 22 21 21 21 21 21 21 21 22 22 22 22 22 22 23 23 23 24 25 25 24 25 26 26 26 25 22 19 18 18 18 18 20 21 21 19 17 17 19 22 25 26 27 27 27 27 27 26 26 27 28 28 28 29 31 32 32 32 31 30
33 39 39 35 30 28 28 28 27 28 28 27 27 26 24 23 22 21 21 21 21 22 22 22 22 22 22 22 23 22 22 22 21 21 21 21 21 22 22 22 22 22 23 24 24 24 24 25 26 26 24 22 19 19 19 20 20 23 24 22 18 17 18 20 23 26 27 27 27 26 26 26 25 26 28 30 31 32 34 35 34 31 29 28 28
37 36 33 31 29 28 28 28 28 29 29 29 28 25 22 21 21 20 21 21 22 22 23 24 24 24 24 24 24 24 23 22 21 20 20 20 21 21 22 22 22 22 22 23 23 24 24 25 25 24 22 22 22 22 23 23 23 25 25 22 20 20 22 24 26 28 29 29 29 28 27 26 26 29 32 32 33 35 36 34 32 29 27 26 26
34 30 29 28 27 27 27 28 29 29 28 27 26 24 22 21 21 21 22 23 23 24 25 26 26 26 25 25 24 24 23 22 21 20 20 20 20 20 21 22 21 21 22 22 23 24 24 23 23 23 24 26 28 28 27 27 27 26 25 23 23 25 25 25 26 28 29 30 30 29 29 29 30 32 33 33 34 36 35 32 29 27 26 25 24
28 27 27 26 26 26 26 27 27 26 26 25 24 23 22 22 22 23 23 24 25 25 26 26 26 25 25 24 23 23 22 22 22 21 20 20 19 19 21 22 21 21 21 23 24 24 23 22 24 27 29 32 34 34 32 30 28 26 25 26 27 28 26 25 26 28 29 30 30 29 30 31 32 33 34 35 36 35 33 30 28 26 24 23 22
25 25 25 25 25 25 25 25 25 24 24 24 23 22 22 22 23 24 24 25 26 26 26 25 24 24 23 23 23 22 22 22 21 21 21 21 19 19 21 22 23 22 22 23 25 25 24 25 28 32 32 33 35 35 33 30 27 25 25 27 28 27 27 28 30 30 29 28 29 30 30 31 32 33 34 36 35 33 31 29 27 25 23 23 21
24 24 24 24 24 23 23 24 24 24 24 23 23 22 23 23 23 24 24 25 25 25 25 24 23 23 22 22 22 22 22 22 21 21 22 23 23 22 21 21 21 22 23 22 22 22 23 24 28 30 30 31 31 30 29 28 27 26 27 27 28 28 29 29 29 28 27 27 28 30 31 31 32 34 34 34 32 30 29 27 26 25 23 22 21
Wind_Direction
191 182 177 174 175 176 175 178 181 183 193 207 225 262 281 286 296 300 301 304 306 306 307 307 307 307 307 306 306 307 308 307 306 304 301 299 298 298 297 296 294 293 291 290 289 287 286 287 287 286 284 283 283 283 282 281 280 278 276 275 277 279 279 278 279 279 281 283 283 282 283 284 286 286 287 286 278 270 270 272 274 275 273 275 283
196 188 185 186 188 188 190 196 203 210 222 242 253 272 290 295 298 300 302 304 306 306 306 307 306 306 306 305 305 305 305 304 304 302 298 297 296 295 294 293 292 291 289 288 287 285 285 285 284 283 282 281 281 280 280 279 277 274 274 275 276 278 280 281 281 282 282 284 287 289 289 287 284 283 283 275 263 262 266 270 272 269 266 269 276
207 201 197 199 202 205 209 213 221 231 240 256 268 278 290 295 298 300 302 304 306 307 307 308 308 308 308 307 306 306 306 305 304 303 299 297 296 293 292 291 290 289 287 286 284 283 283 283 282 281 281 280 279 279 277 275 273 271 273 276 276 276 278 279 279 280 281 284 289 291 294 297 295 290 279 266 261 260 256 259 265 257 246 248 258
218 215 209 209 214 218 223 227 232 242 252 262 272 280 288 294 298 301 304 306 308 309 310 311 311 311 311 310 309 308 308 308 306 304 301 299 297 293 292 292 291 290 288 285 283 282 282 282 281 280 280 280 280 279 277 273 271 272 274 276 277 278 278 276 273 273 276 283 288 289 293 297 296 294 284 271 261 254 246 242 248 244 236 240 249
228 230 223 219 221 225 231 237 240 247 256 265 274 282 288 295 299 302 305 307 310 311 312 313 313 313 312 311 310 309 309 310 308 306 302 299 297 293 293 293 292 292 290 288 287 285 285 284 283 282 281 281 281 281 279 276 275 276 277 276 277 281 282 280 278 275 271 271 276 288 298 294 285 292 295 289 276 256 248 242 242 243 243 247 254
237 243 239 230 227 230 235 241 247 252 258 265 274 283 290 295 300 303 306 308 310 312 313 313 313 312 312 311 311 311 312 313 311 307 302 298 295 293 294 295 293 292 291 291 291 290 288 288 289 287 285 284 283 283 282 281 280 279 278 278 280 281 283 285 285 279 271 264 258 264 271 274 283 294 299 296 288 278 267 256 251 249 250 253 254
240 246 249 239 232 233 237 243 252 257 261 264 272 283 290 294 299 301 304 307 309 311 311 312 311 311 310 311 312 313 314 314 311 305 300 297 295 294 295 296 295 293 291 291 291 291 290 290 292 290 286 285 285 285 284 284 283 282 281 282 284 284 284 286 288 285 278 271 260 254 251 251 265 281 290 295 296 292 284 275 269 265 261 260 258
244 248 254 248 238 237 241 246 253 259 261 263 270 281 288 292 296 298 301 304 305 307 308 308 310 310 310 311 312 314 315 314 309 302 298 296 294 293 294 296 295 292 291 289 289 289 289 290 292 291 288 287 286 285 285 284 284 284 284 284 285 286 286 287 288 289 286 280 272 264 259 252 251 260 268 278 290 292 289 287 284 280 273 269 268
250 254 260 258 246 241 245 249 254 259 260 263 269 279 285 289 292 295 297 300 301 304 304 306 310 311 311 311 313 315 316 313 307 300 296 293 291 291 292 294 293 290 287 286 287 287 288 290 293 293 291 291 289 287 287 286 286 285 285 285 285 286 287 287 287 287 287 284 282 276 270 266 261 259 260 263 272 282 287 290 289 286 281 275 272
252 257 263 266 255 246 248 252 255 258 260 262 268 276 282 285 289 291 294 297 299 302 304 307 311 312 312 312 314 316 316 312 305 298 294 291 289 289 291 292 292 290 286 285 286 286 287 290 293 293 293 293 292 291 291 290 289 288 289 288 288 288 287 287 286 285 285 284 283 281 277 276 275 271 268 267 268 271 278 284 287 287 285 281 278
252 257 263 267 259 249 250 254 256 258 260 262 266 274 279 281 284 286 290 295 298 301 305 309 310 310 311 312 314 317 315 309 302 297 294 291 289 289 290 291 291 290 287 284 283 284 286 289 293 294 294 294 294 293 294 293 293 292 291 290 290 290 289 287 286 284 285 283 280 278 277 276 276 275 275 275 275 274 278 282 284 286 285 283 284
254 258 263 265 259 253 254 257 258 259 260 262 266 273 276 277 280 283 288 293 297 302 306 308 308 308 310 312 314 318 316 307 300 297 294 291 289 288 289 290 291 290 288 286 285 285 287 289 292 293 293 295 295 294 296 296 295 294 293 292 291 291 290 288 286 286 285 284 281 278 275 273 270 270 271 270 271 273 279 283 285 289 287 283 284
256 260 265 266 262 259 259 260 260 260 261 262 266 271 273 274 277 280 286 292 297 302 305 305 305 307 309 310 313 317 317 308 299 295 293 290 287 286 287 289 290 290 289 289 288 286 288 291 292 293 294 296 295 295 296 295 295 295 294 294 293 292 291 287 286 287 286 284 284 280 275 273 271 268 268 267 267 269 274 279 283 287 286 283 284
258 262 267 270 269 267 264 264 263 261 262 263 265 269 271 273 275 279 285 290 294 299 301 301 303 305 306 307 311 316 317 311 300 295 292 288 285 283 284 286 288 290 289 289 288 287 288 291 291 293 295 296 296 296 296 295 295 294 294 294 293 293 292 288 287 285 283 283 283 282 278 274 271 269 267 266 268 269 272 278 284 287 284 283 284
260 264 268 273 276 274 270 267 266 264 264 264 265 268 270 271 274 277 281 284 289 294 296 299 302 303 302 304 308 314 317 312 301 295 291 287 284 281 282 284 285 287 286 285 286 286 288 290 291 293 295 296 297 297 296 296 295 293 293 293 293 294 291 288 288 286 284 283 282 281 280 277 273 271 268 265 265 267 269 273 281 289 291 289 288
262 266 272 278 280 278 274 272 270 269 268 268 268 269 270 273 275 276 277 280 284 289 293 298 300 300 300 303 307 312 315 312 301 293 290 285 281 279 279 281 282 283 283 282 283 285 287 290 291 292 295 296 297 297 297 296 296 294 295 295 295 296 292 290 290 289 288 288 285 283 281 280 279 276 272 269 266 265 266 267 270 279 289 293 293
267 271 276 280 282 280 278 276 274 273 274 274 274 273 275 277 277 275 274 275 280 285 290 295 297 299 300 301 306 311 313 311 300 290 287 284 280 277 277 278 280 281 281 281 283 284 286 288 289 291 293 294 295 296 296 296 296 296 296 297 297 297 293 292 292 292 291 291 288 287 285 284 284 282 278 275 271 268 266 266 266 268 275 284 291
272 274 277 280 281 281 281 280 278 276 276 276 276 277 278 280 278 275 272 272 277 282 286 290 293 296 298 300 304 309 312 309 298 288 285 284 281 279 278 278 279 281 281 282 283 284 285 286 288 290 291 293 294 295 295 295 295 295 296 297 297 297 294 293 294 293 293 292 290 289 287 286 285 283 281 277 274 271 269 268 267 265 265 270 278
271 275 278 280 283 285 285 283 280 279 277 277 277 277 277 276 274 273 272 272 273 275 278 283 289 293 297 299 302 307 310 306 296 287 283 283 282 281 279 278 279 280 281 282 282 284 286 286 288 290 292 293 293 294 295 295 294 295 296 296 295 295 293 293 295 294 293 293 291 290 288 287 287 285 283 280 277 274 272 271 269 267 265 266 269
274 278 281 284 287 288 287 285 283 281 280 278 277 275 274 272 269 267 268 266 265 268 272 278 284 289 293 296 300 306 308 303 293 285 282 281 281 280 278 278 278 278 278 279 281 284 286 287 289 290 292 293 293 294 295 294 294 295 296 296 296 296 295 295 296 295 295 294 292 291 289 289 289 287 284 282 280 276 273 270 269 268 267 267 269
279 281 283 286 288 287 286 285 283 282 280 277 275 274 272 269 267 265 263 260 260 264 269 275 281 285 289 294 299 305 306 300 290 284 281 279 278 277 277 277 276 276 277 278 281 284 286 287 288 289 290 291 292 293 293 293 294 295 295 296 297 297 296 297 297 295 295 294 292 291 290 289 289 287 285 283 281 279 274 269 267 268 268 268 270
281 283 284 286 286 286 287 287 284 280 278 275 274 272 269 268 267 265 261 258 259 262 267 274 278 281 286 292 298 303 304 298 288 282 280 278 278 277 275 275 274 274 275 277 280 283 284 285 287 288 289 290 291 293 293 293 293 294 295 295 296 296 296 296 296 295 296 295 293 292 291 291 290 287 285 284 281 279 274 270 268 270 271 271 271
284 284 284 285 287 290 291 290 286 282 278 275 272 270 268 268 267 265 261 259 260 263 267 271 274 277 282 289 295 300 302 296 286 281 279 279 279 277 275 274 273 274 275 278 280 281 283 284 286 288 289 291 293 293 293 293 294 295 295 295 295 296 296 295 295 295 295 294 292 291 292 292 292 288 285 284 282 278 274 273 274 274 275 275 274
285 284 283 286 290 293 292 289 287 285 281 276 273 270 269 268 267 265 263 262 261 262 264 267 270 275 280 286 293 299 300 294 286 280 279 279 278 276 275 274 274 276 278 280 281 282 284 285 286 288 290 291 292 291 292 293 294 296 296 297 297 297 296 296 294 294 293 292 291 291 291 291 290 287 286 285 283 279 274 274 276 276 274 275 276
283 282 284 289 293 293 290 287 286 283 279 275 272 271 270 269 268 267 265 264 261 259 260 263 267 273 278 285 292 298 299 293 285 280 278 278 277 275 274 274 274 276 278 280 281 283 285 286 287 289 289 290 290 291 292 293 294 296 297 298 299 298 297 296 294 294 294 294 293 291 291 291 289 287 287 287 284 279 274 272 273 273 273 275 277
282 284 289 293 295 294 291 290 289 286 282 280 277 274 271 270 269 268 266 263 260 257 258 260 264 271 277 284 292 298 299 292 283 279 277 277 275 273 272 273 274 276 278 279 281 283 284 285 286 287 287 289 290 291 294 296 296 297 297 298 297 296 295 294 294 295 295 294 292 291 291 291 289 288 288 287 284 278 273 271 271 272 273 276 278
287 289 292 293 295 297 297 297 299 299 296 291 284 277 273 270 268 266 263 259 257 255 256 259 264 270 275 283 293 299 298 291 282 277 276 275 273 271 272 273 275 277 279 280 282 283 283 283 283 285 286 288 290 292 295 297 298 298 297 296 296 295 294 294 293 292 291 290 289 289 289 288 287 287 287 288 285 279 273 270 269 271 273 276 278
297 297 296 299 304 306 305 304 305 304 301 295 288 280 275 272 268 265 260 256 253 252 254 259 264 269 275 286 296 299 296 288 280 276 274 273 271 271 272 274 276 278 279 280 282 282 282 282 283 286 288 289 291 293 295 296 296 296 296 296 295 294 293 291 289 288 287 287 288 287 287 287 288 288 289 290 289 283 277 272 269 271 275 278 280
307 305 305 308 310 310 308 307 307 305 302 298 291 284 277 272 267 262 256 252 249 250 253 259 263 267 277 291 300 299 293 285 278 274 273 273 272 272 273 274 277 279 280 282 282 282 282 284 286 288 289 289 290 291 294 295 295 296 297 296 295 294 294 293 293 292 291 291 291 290 290 291 292 292 293 293 290 286 282 277 274 275 279 283 285
311 309 309 312 314 314 313 312 310 308 306 302 297 289 282 276 269 261 254 250 249 250 254 257 260 267 284 298 300 296 290 282 276 274 273 273 273 274 275 277 279 280 281 282 282 283 284 286 287 288 287 287 288 291 294 296 298 300 300 300 300 301 302 300 299 298 297 296 295 294 294 295 296 297 296 294 290 285 282 281 281 282 284 286 287
313 313 317 320 321 320 318 315 312 309 306 303 299 292 284 277 271 262 255 251 250 251 253 255 262 279 297 301 297 292 285 279 275 273 273 274 274 275 276 278 280 281 282 282 282 283 285 285 286 285 285 286 288 292 296 297 299 299 300 301 301 300 298 296 294 293 293 294 295 295 296 297 297 297 296 293 290 286 283 283 282 281 280 281 281
322 325 327 327 324 321 318 314 312 311 309 307 301 293 284 278 271 263 256 252 250 249 251 261 280 298 302 297 292 287 282 277 274 272 274 275 275 276 277 279 281 283 283 282 282 283 284 285 285 285 286 287 288 293 296 297 298 298 297 298 296 293 291 290 288 287 287 289 291 293 294 294 294 295 294 290 286 283 281 278 275 273 271 270 271
332 330 328 325 322 320 318 317 318 318 317 315 307 297 288 282 274 264 256 250 247 249 263 284 299 301 297 293 289 285 280 276 274 274 275 276 277 278 279 282 283 284 282 281 282 284 285 286 286 286 286 286 289 293 295 296 297 297 297 295 291 289 288 286 285 285 285 288 290 292 292 293 293 294 292 287 284 283 281 277 273 271 269 267 266
330 328 327 325 324 324 323 324 324 323 322 320 314 306 296 287 276 264 254 248 251 269 290 301 302 298 294 292 288 282 279 276 276 276 277 278 279 280 282 284 284 283 282 282 284 285 286 287 287 287 287 287 290 293 295 296 297 297 296 289 282 280 281 281 281 282 284 288 290 291 291 292 293 292 290 289 289 289 287 282 277 273 270 268 266
332 332 331 331 331 331 331 329 327 325 324 322 317 308 297 285 273 262 257 263 283 301 307 307 304 301 298 293 287 283 280 278 278 278 279 280 281 282 284 285 285 284 283 284 285 286 287 288 287 287 287 288 290 293 294 295 296 296 293 283 275 274 275 277 278 281 284 287 288 289 290 291 293 292 291 291 290 289 287 285 282 280 277 275 272
337 337 337 337 337 336 333 331 329 327 325 321 314 304 291 280 273 272 286 306 314 315 315 313 311 308 303 297 291 286 283 282 281 281 281 282 283 285 286 286 285 284 284 285 287 287 288 288 288 288 288 289 291 292 292 293 295 294 289 281 277 276 276 277 279 281 283 284 285 287 289 291 291 290 290 291 289 287 285 284 284 284 284 282 280
339 338 338 338 337 335 334 333 332 333 329 323 314 304 294 290 296 309 319 321 320 320 319 318 316 312 306 300 295 291 288 286 284 283 283 285 286 287 288 287 285 284 285 286 287 287 288 289 290 290 290 291 292 293 292 293 294 293 288 283 281 280 280 281 281 281 282 283 285 287 288 290 289 289 291 293 293 290 287 286 286 286 285 283 282
339 338 338 337 336 336 334 333 334 335 333 327 319 313 310 310 315 320 323 322 321 323 324 322 318 311 304 300 296 293 291 289 287 286 287 288 289 288 287 285 284 284 285 286 287 287 289 290 292 293 293 293 294 295 294 294 294 295 293 287 284 283 283 285 285 285 284 284 286 288 290 290 290 291 293 294 292 291 288 287 288 288 287 285 284
338 338 338 337 337 336 335 335 335 334 333 330 325 321 320 319 318 319 320 322 325 327 325 321 314 307 301 298 296 295 293 291 289 289 290 290 289 288 287 285 284 285 286 287 287 289 290 291 293 294 294 294 296 297 297 295 294 296 295 289 286 288 289 291 290 287 285 287 289 291 290 287 286 288 289 289 289 289 288 288 290 291 290 289 287
337 338 337 337 338 340 339 339 339 338 335 333 330 328 326 321 317 317 321 325 326 325 322 316 309 303 299 297 296 296 294 292 291 292 291 290 289 289 288 287 286 287 287 288 289 290 291 293 294 295 295 295 296 298 298 294 292 294 293 286 284 288 291 290 287 286 291 294 293 289 284 282 283 285 288 290 290 289 289 291 292 292 291 290 290
336 336 337 339 342 342 339 337 336 334 332 331 331 329 324 318 317 322 327 326 323 321 319 313 306 301 298 298 299 299 297 296 295 293 292 291 292 292 291 290 289 289 289 290 291 292 292 294 295 296 296 297 297 296 296 293 290 291 290 280 278 284 288 287 289 293 296 293 287 283 282 283 285 288 291 292 293 293 293 293 292 291 291 291 291
336 337 340 341 341 340 338 337 337 337 336 334 331 326 321 321 327 330 328 324 321 319 315 309 305 302 301 303 304 303 301 299 297 296 296 296 297 296 294 293 292 291 290 291 292 292 294 295 297 298 298 298 297 296 294 292 289 290 290 284 280 282 284 286 291 294 291 285 282 283 285 287 290 293 294 295 295 293 290 290 290 290 289 288 287
337 339 342 342 341 340 340 341 343 344 344 338 330 326 326 330 331 329 325 321 319 315 311 308 306 306 306 308 307 305 303 301 300 299 298 297 297 296 295 294 293 292 291 291 292 295 296 297 298 299 299 299 299 297 293 291 290 292 294 293 288 281 278 283 288 287 284 283 284 286 288 292 296 297 296 293 290 288 288 289 291 288 285 284 283
338 341 342 342 342 341 341 344 345 345 343 339 333 330 329 328 327 325 322 319 316 313 311 310 309 310 310 310 308 306 304 303 301 299 297 297 298 297 295 294 293 292 291 292 294 297 297 298 299 300 301 304 304 301 295 292 294 297 300 301 297 286 278 279 282 281 282 286 289 291 294 297 296 293 288 284 283 285 290 294 295 292 289 286 284
337 339 340 341 343 343 343 344 343 341 340 338 334 330 328 327 326 324 320 317 314 312 311 311 312 313 312 311 310 310 309 306 304 302 299 299 300 298 296 296 294 292 293 294 297 298 298 299 300 303 306 310 309 303 299 299 300 302 304 306 303 291 283 283 284 284 288 293 296 296 296 296 294 289 285 287 291 297 301 303 301 299 296 292 290
336 337 339 341 344 344 343 343 341 339 339 338 336 335 333 330 327 323 320 318 316 315 315 316 317 317 317 317 316 316 315 312 309 305 302 301 301 300 298 297 295 294 295 296 298 299 299 299 302 306 310 312 310 306 305 306 307 306 307 308 305 299 297 297 295 296 300 302 301 300 300 300 297 294 295 299 303 305 305 305 303 300 297 295 294
337 338 339 343 345 344 342 341 339 338 338 339 340 340 337 332 328 326 324 323 322 321 322 322 323 323 323 321 320 319 318 316 312 308 304 302 302 301 299 298 297 298 298 298 299 299 300 302 306 310 312 310 308 307 307 308 309 308 308 308 306 306 306 304 302 304 306 306 306 306 305 300 294 294 297 298 299 302 304 303 301 299 297 296 295
337 340 343 346 346 344 341 340 339 339 340 341 342 341 338 334 331 329 327 326 326 326 326 325 325 324 323 322 321 319 317 315 312 309 305 303 303 301 298 297 298 299 299 300 300 300 301 306 310 312 312 310 307 305 307 309 310 308 308 309 309 308 308 306 305 306 306 305 304 302 298 294 291 292 294 295 298 302 303 302 300 299 298 295 294
342 346 347 347 345 344 342 341 341 341 342 342 343 341 338 334 331 329 328 328 328 327 326 325 325 323 322 321 318 317 315 313 311 308 305 303 302 301 300 299 300 300 301 302 302 303 308 313 313 311 310 308 304 304 307 309 309 309 309 308 305 303 301 299 299 300 300 299 296 292 289 288 289 291 294 297 301 303 302 300 301 300 298 296 295
347 348 348 348 347 345 344 342 343 344 343 343 343 341 336 333 332 330 329 328 327 326 325 326 325 324 322 320 318 317 316 313 311 309 306 304 302 301 301 303 304 304 303 302 302 304 309 310 306 303 303 301 301 304 307 307 308 308 304 298 293 289 286 287 290 294 294 290 286 284 284 286 289 293 297 300 302 302 301 301 301 301 299 298 298
348 349 350 350 349 347 345 345 345 345 344 343 342 340 336 334 333 332 331 329 328 327 326 327 327 326 324 322 320 319 318 315 313 312 309 307 306 304 302 301 300 299 297 295 294 296 296 294 291 291 292 294 296 299 300 300 299 295 289 286 284 284 284 287 290 290 286 282 280 281 284 287 291 295 298 299 299 299 299 300 301 301 301 300 300
Height
1562 1561 1561 1560 1559 1559 1558 1558 1557 1556 1556 1555 1555 1554 1553 1553 1552 1551 1550 1549 1548 1547 1546 1545 1544 1543 1542 1541 1539 1538 1537 1535 1533 1532 1531 1529 1528 1527 1526 1525 1524 1523 1522 1521 1520 1518 1518 1517 1517 1516 1515 1514 1514 1513 1513 1512 1511 1510 1508 1507 1507 1506 1507 1507 1506 1504 1501 1500 1498 1497 1497 1498 1497 1496 1496 1497 1496 1495 1495 1494 1494 1494 1494 1494 1495
1561 1561 1560 1560 1559 1558 1558 1557 1556 1555 1555 1554 1553 1552 1552 1551 1550 1549 1548 1547 1546 1545 1544 1542 1541 1540 1539 1538 1536 1535 1534 1532 1531 1529 1527 1526 1524 1523 1522 1521 1521 1519 1518 1517 1516 1515 1514 1514 1514 1513 1512 1511 1510 1510 1510 1509 1508 1506 1505 1504 1504 1503 1503 1504 1503 1501 1499 1498 1495 1493 1493 1493 1494 1494 1494 1493 1493 1493 1492 1491 1491 1491 1491 1492 1492
1560 1560 1559 1559 1558 1557 1556 1555 1555 1554 1553 1552 1551 1550 1549 1548 1547 1547 1545 1545 1543 1542 1541 1540 1539 1537 1536 1535 1533 1532 1531 1529 1528 1526 1524 1522 1521 1520 1519 1518 1517 1516 1515 1514 1513 1511 1511 1511 1511 1509 1509 1508 1507 1507 1507 1506 1504 1503 1502 1501 1501 1501 1500 1501 1501 1500 1497 1496 1494 1492 1490 1489 1488 1489 1489 1489 1490 1490 1490 1489 1488 1488 1488 1488 1489
1558 1558 1558 1557 1556 1555 1555 1554 1553 1552 1551 1550 1549 1548 1547 1546 1545 1544 1543 1542 1541 1539 1538 1537 1536 1534 1533 1532 1530 1529 1528 1526 1524 1523 1521 1519 1518 1516 1515 1515 1514 1513 1512 1510 1509 1508 1507 1508 1507 1506 1506 1505 1504 1504 1503 1503 1501 1500 1500 1499 1498 1497 1497 1497 1498 1498 1496 1495 1493 1491 1490 1488 1486 1485 1484 1485 1487 1487 1486 1487 1486 1486 1486 1486 1486
1556 1555 1555 1555 1554 1553 1553 1552 1551 1550 1549 1547 1546 1545 1544 1543 1542 1541 1540 1539 1538 1536 1535 1534 1532 1531 1530 1528 1527 1526 1525 1523 1521 1519 1517 1516 1514 1513 1512 1512 1511 1510 1509 1507 1506 1505 1504 1504 1505 1504 1503 1502 1501 1501 1500 1499 1499 1498 1498 1496 1496 1495 1494 1493 1495 1496 1495 1494 1493 1491 1490 1488 1485 1483 1481 1479 1482 1484 1483 1484 1484 1483 1483 1484 1483
1553 1552 1552 1552 1551 1551 1550 1549 1548 1547 1546 1545 1544 1543 1541 1540 1539 1538 1537 1535 1534 1533 1532 1530 1529 1528 1526 1525 1524 1522 1521 1520 1518 1516 1514 1513 1511 1509 1509 1509 1508 1507 1505 1504 1503 1502 1501 1501 1502 1502 1501 1500 1499 1498 1498 1497 1496 1496 1495 1494 1493 1493 1491 1490 1491 1492 1492 1492 1492 1490 1489 1487 1484 1482 1481 1476 1474 1477 1480 1481 1481 1481 1481 1481 1481
1551 1550 1549 1549 1548 1548 1547 1546 1545 1544 1543 1542 1541 1540 1538 1537 1536 1535 1533 1532 1531 1530 1528 1527 1526 1524 1523 1522 1521 1519 1517 1516 1515 1513 1510 1509 1508 1506 1506 1506 1505 1504 1502 1501 1500 1499 1498 1498 1499 1499 1498 1497 1497 1496 1495 1494 1494 1493 1493 1492 1491 1491 1490 1488 1488 1488 1488 1489 1489 1488 1487 1486 1484 1482 1482 1478 1472 1470 1473 1475 1476 1477 1477 1477 1477
1548 1547 1546 1546 1545 1544 1543 1543 1542 1541 1540 1539 1538 1536 1535 1534 1533 1531 1530 1529 1528 1527 1526 1524 1522 1521 1520 1519 1518 1516 1514 1513 1511 1509 1508 1506 1505 1503 1503 1503 1502 1501 1500 1498 1497 1496 1495 1494 1495 1495 1494 1494 1493 1493 1492 1492 1491 1491 1490 1490 1489 1488 1487 1486 1485 1485 1485 1485 1486 1485 1484 1484 1483 1482 1481 1480 1475 1468 1466 1469 1471 1471 1472 1473 1473
1544 1543 1542 1542 1541 1540 1540 1539 1539 1538 1536 1535 1534 1533 1532 1531 1529 1528 1527 1526 1524 1523 1522 1521 1519 1517 1517 1515 1514 1513 1511 1510 1508 1506 1505 1504 1502 1500 1500 1500 1499 1498 1497 1495 1494 1493 1492 1491 1491 1491 1491 1490 1490 1489 1489 1488 1488 1487 1487 1487 1486 1485 1485 1484 1483 1483 1482 1482 1482 1482 1481 1480 1480 1480 1479 1478 1477 1471 1465 1465 1467 1466 1466 1467 1469
1540 1540 1538 1538 1538 1537 1537 1536 1535 1534 1533 1532 1530 1530 1528 1527 1526 1525 1523 1522 1521 1520 1518 1517 1515 1514 1513 1512 1510 1509 1508 1506 1504 1503 1502 1501 1499 1498 1497 1497 1496 1495 1494 1493 1491 1490 1489 1488 1488 1488 1487 1487 1486 1486 1485 1485 1484 1484 1483 1483 1482 1482 1482 1481 1480 1480 1479 1479 1479 1478 1477 1477 1476 1476 1476 1475 1474 1471 1465 1463 1464 1463 1461 1461 1463
1537 1536 1535 1534 1534 1534 1533 1531 1531 1530 1529 1528 1527 1526 1525 1524 1523 1521 1520 1518 1517 1516 1514 1513 1512 1510 1509 1508 1507 1506 1504 1502 1501 1500 1499 1497 1496 1495 1494 1493 1493 1492 1491 1490 1489 1488 1486 1486 1485 1485 1484 1484 1483 1482 1482 1481 1481 1480 1480 1480 1479 1479 1478 1478 1477 1477 1476 1476 1476 1475 1474 1474 1473 1472 1472 1471 1470 1468 1465 1461 1460 1461 1458 1456 1458
1534 1533 1531 1531 1530 1529 1528 1527 1526 1526 1525 1524 1523 1522 1521 1520 1519 1517 1516 1515 1513 1512 1510 1509 1508 1507 1506 1505 1504 1503 1501 1499 1498 1496 1495 1494 1492 1491 1491 1490 1490 1489 1488 1487 1486 1485 1484 1483 1483 1482 1481 1481 1480 1479 1479 1478 1477 1477 1477 1476 1476 1476 1475 1475 1474 1473 1473 1472 1472 1472 1472 1471 1471 1470 1469 1468 1467 1466 1464 1459 1457 1458 1455 1452 1453
1530 1529 1528 1527 1526 1525 1523 1522 1522 1521 1520 1520 1519 1518 1517 1516 1515 1513 1512 1511 1509 1508 1507 1506 1505 1503 1502 1501 1501 1499 1498 1496 1494 1493 1492 1491 1489 1488 1487 1487 1486 1486 1485 1484 1483 1482 1481 1481 1480 1479 1478 1478 1477 1476 1476 1475 1474 1474 1473 1473 1472 1472 1472 1471 1470 1470 1470 1469 1468 1469 1468 1468 1467 1467 1466 1466 1465 1464 1462 1458 1456 1456 1453 1448 1449
1526 1525 1524 1523 1522 1521 1519 1518 1518 1517 1516 1516 1515 1514 1513 1512 1510 1509 1508 1508 1506 1504 1504 1503 1501 1500 1499 1498 1497 1496 1495 1493 1491 1490 1489 1488 1486 1485 1484 1484 1483 1482 1482 1481 1480 1479 1478 1478 1477 1476 1475 1475 1474 1473 1473 1472 1471 1470 1470 1469 1469 1469 1468 1467 1467 1467 1466 1466 1465 1465 1465 1464 1464 1464 1464 1463 1462 1461 1460 1458 1454 1453 1450 1447 1445
1522 1521 1520 1518 1518 1517 1516 1515 1513 1513 1512 1511 1510 1509 1508 1507 1506 1505 1504 1504 1503 1501 1501 1499 1498 1497 1495 1494 1494 1493 1491 1490 1488 1487 1486 1485 1483 1482 1481 1480 1480 1479 1478 1478 1477 1476 1475 1475 1474 1473 1472 1471 1471 1470 1469 1469 1468 1467 1467 1466 1466 1466 1465 1464 1463 1463 1462 1462 1462 1462 1461 1461 1461 1461 1460 1460 1460 1459 1458 1457 1454 1451 1447 1444 1442
1519 1517 1516 1514 1514 1513 1511 1510 1509 1508 1508 1507 1506 1505 1504 1503 1502 1501 1500 1500 1499 1498 1497 1496 1495 1494 1492 1491 1490 1489 1488 1486 1485 1484 1483 1482 1480 1479 1478 1477 1477 1476 1475 1475 1474 1473 1472 1472 1471 1470 1469 1469 1468 1467 1466 1465 1465 1464 1463 1463 1463 1462 1461 1460 1460 1460 1459 1459 1459 1458 1458 1457 1457 1457 1457 1456 1456 1456 1455 1455 1454 1452 1448 1442 1439
1515 1514 1512 1511 1510 1508 1507 1506 1505 1504 1503 1502 1502 1501 1500 1499 1498 1497 1496 1496 1495 1494 1493 1492 1491 1490 1489 1488 1487 1485 1484 1483 1481 1480 1479 1478 1477 1476 1475 1474 1473 1473 1472 1471 1471 1470 1470 1469 1468 1467 1466 1466 1465 1464 1463 1462 1461 1461 1460 1459 1459 1459 1458 1457 1457 1456 1456 1456 1455 1455 1454 1454 1454 1454 1453 1453 1453 1453 1452 1452 1451 1451 1449 1444 1439
1511 1509 1508 1507 1505 1504 1502 1501 1500 1498 1498 1497 1497 1496 1495 1494 1493 1492 1491 1491 1490 1489 1488 1488 1488 1487 1486 1485 1483 1482 1480 1479 1477 1476 1475 1474 1473 1473 1471 1470 1470 1469 1468 1468 1467 1467 1466 1466 1465 1464 1463 1463 1462 1461 1460 1459 1458 1457 1457 1456 1456 1455 1454 1454 1454 1453 1452 1452 1451 1451 1451 1450 1450 1450 1450 1449 1449 1449 1448 1449 1448 1447 1447 1444 1441
1507 1505 1503 1502 1501 1499 1498 1496 1495 1493 1492 1491 1491 1491 1490 1488 1487 1486 1486 1485 1485 1484 1483 1483 1483 1482 1481 1481 1480 1478 1477 1475 1474 1473 1471 1470 1469 1469 1468 1467 1466 1465 1465 1464 1464 1463 1463 1462 1461 1461 1460 1459 1459 1458 1457 1456 1455 1454 1454 1453 1453 1452 1451 1450 1450 1450 1449 1449 1448 1447 1447 1447 1446 1446 1446 1445 1445 1445 1445 1444 1444 1443 1443 1441 1440
1502 1500 1499 1498 1496 1495 1494 1492 1490 1489 1487 1486 1485 1484 1483 1482 1481 1480 1480 1480 1479 1479 1478 1478 1477 1477 1477 1476 1476 1475 1473 1472 1470 1469 1468 1467 1466 1465 1464 1463 1463 1462 1461 1461 1460 1460 1459 1458 1458 1457 1457 1456 1455 1455 1454 1453 1452 1451 1451 1450 1449 1448 1447 1446 1446 1446 1446 1445 1444 1443 1443 1443 1443 1442 1442 1442 1441 1441 1441 1441 1440 1439 1439 1438 1437
1497 1496 1495 1494 1493 1491 1490 1488 1486 1484 1483 1481 1480 1478 1477 1476 1475 1474 1474 1473 1473 1472 1472 1471 1471 1471 1471 1471 1471 1471 1469 1468 1467 1465 1464 1463 1462 1462 1461 1460 1459 1459 1458 1457 1457 1456 1456 1455 1454 1454 1453 1453 1452 1452 1451 1450 1449 1448 1447 1446 1446 1445 1444 1443 1442 1442 1442 1441 1440 1440 1439 1439 1439 1438 1438 1437 1437 1437 1437 1437 1437 1436 1435 1436 1435
1494 1493 1491 1490 1489 1487 1486 1484 1482 1480 1478 1476 1474 1473 1471 1470 1469 1468 1468 1467 1466 1466 1466 1466 1465 1465 1465 1466 1466 1466 1465 1464 1463 1462 1461 1460 1459 1458 1457 1457 1456 1455 1455 1454 1454 1453 1452 1452 1451 1450 1450 1449 1449 1448 1448 1447 1446 1445 1444 1443 1442 1441 1440 1440 1439 1438 1438 1438 1437 1436 1435 1435 1435 1434 1433 1433 1433 1433 1433 1432 1433 1433 1431 1432 1432
1491 1489 1487 1486 1484 1483 1481 1479 1478 1476 1474 1472 1470 1468 1466 1464 1463 1463 1461 1461 1461 1461 1461 1460 1460 1460 1460 1461 1461 1461 1461 1460 1459 1458 1457 1456 1455 1455 1454 1453 1452 1452 1451 1451 1450 1450 1449 1448 1447 1447 1446 1446 1445 1445 1444 1444 1443 1442 1441 1440 1439 1438 1437 1436 1436 1435 1434 1434 1433 1432 1431 1431 1431 1430 1429 1429 1429 1429 1429 1429 1428 1429 1428 1427 1428
1487 1485 1483 1482 1480 1479 1477 1475 1474 1472 1470 1468 1466 1463 1462 1460 1458 1457 1455 1455 1455 1455 1455 1455 1455 1455 1455 1455 1456 1456 1456 1455 1455 1454 1453 1453 1452 1451 1450 1449 1449 1448 1448 1447 1447 1446 1446 1445 1444 1443 1443 1442 1442 1441 1441 1440 1439 1438 1437 1436 1435 1435 1434 1433 1432 1431 1431 1430 1429 1428 1428 1428 1427 1426 1425 1425 1425 1425 1425 1425 1424 1425 1425 1424 1424
1483 1481 1480 1479 1477 1475 1474 1471 1470 1468 1466 1464 1462 1460 1458 1456 1454 1452 1451 1451 1450 1450 1450 1449 1449 1450 1450 1451 1451 1451 1451 1451 1451 1450 1450 1449 1449 1448 1447 1446 1445 1445 1444 1444 1443 1443 1442 1441 1441 1440 1439 1439 1438 1438 1437 1437 1436 1435 1434 1432 1432 1431 1430 1429 1428 1427 1427 1426 1425 1424 1424 1424 1423 1422 1422 1422 1422 1422 1422 1422 1421 1421 1421 1420 1420
1479 1478 1477 1475 1474 1472 1470 1468 1467 1465 1463 1461 1459 1457 1454 1452 1450 1448 1447 1446 1445 1445 1445 1444 1444 1445 1445 1446 1446 1446 1447 1447 1447 1446 1446 1446 1445 1444 1443 1443 1442 1442 1441 1441 1440 1439 1439 1438 1437 1437 1436 1435 1435 1434 1434 1433 1432 1431 1430 1429 1428 1427 1426 1425 1424 1424 1423 1422 1421 1420 1420 1420 1420 1419 1418 1418 1418 1418 1418 1418 1417 1417 1417 1417 1416
1477 1476 1474 1473 1471 1470 1468 1466 1465 1463 1461 1458 1455 1453 1450 1447 1444 1443 1441 1441 1440 1440 1440 1440 1440 1440 1441 1441 1441 1442 1442 1442 1443 1443 1442 1442 1441 1441 1440 1440 1439 1438 1438 1437 1437 1436 1435 1435 1434 1434 1433 1432 1431 1430 1430 1429 1428 1427 1427 1426 1425 1424 1423 1422 1421 1420 1420 1419 1418 1417 1417 1417 1416 1416 1415 1415 1415 1414 1414 1413 1413 1413 1413 1413 1412
1476 1474 1472 1471 1469 1467 1465 1463 1461 1459 1457 1454 1450 1447 1444 1441 1438 1437 1436 1435 1435 1436 1435 1435 1435 1435 1436 1437 1437 1437 1438 1438 1439 1439 1439 1438 1438 1437 1437 1436 1436 1435 1434 1434 1433 1433 1432 1432 1431 1430 1429 1428 1428 1427 1427 1426 1425 1424 1423 1422 1421 1420 1419 1418 1417 1417 1416 1415 1414 1414 1413 1413 1413 1412 1412 1412 1411 1411 1410 1409 1409 1410 1409 1409 1408
1474 1472 1470 1468 1466 1463 1461 1459 1457 1454 1452 1449 1446 1442 1438 1435 1433 1432 1431 1431 1431 1431 1430 1430 1430 1431 1432 1432 1432 1433 1433 1434 1435 1435 1435 1435 1434 1434 1434 1433 1432 1432 1431 1431 1430 1429 1428 1428 1427 1426 1426 1425 1424 1424 1423 1422 1421 1420 1419 1418 1417 1416 1415 1414 1413 1412 1412 1411 1410 1410 1410 1409 1409 1409 1408 1408 1407 1407 1406 1405 1405 1406 1405 1404 1404
1471 1469 1467 1465 1463 1460 1458 1456 1453 1451 1448 1445 1442 1439 1435 1432 1430 1428 1427 1427 1427 1426 1425 1425 1425 1427 1428 1428 1428 1429 1429 1430 1430 1431 1431 1431 1431 1431 1430 1430 1429 1428 1428 1427 1426 1426 1425 1424 1424 1423 1422 1422 1421 1421 1420 1419 1418 1417 1415 1414 1413 1412 1411 1410 1409 1408 1407 1407 1406 1405 1405 1405 1405 1405 1404 1404 1403 1403 1402 1401 1401 1401 1401 1400 1400
1469 1467 1465 1463 1461 1458 1456 1454 1451 1448 1445 1442 1439 1435 1432 1429 1427 1425 1424 1423 1423 1422 1421 1422 1422 1423 1424 1425 1425 1425 1425 1426 1427 1427 1428 1428 1428 1428 1427 1426 1426 1425 1425 1424 1423 1422 1422 1421 1420 1419 1419 1418 1417 1417 1416 1415 1415 1414 1413 1411 1410 1409 1408 1407 1406 1405 1403 1402 1402 1401 1401 1401 1401 1400 1400 1399 1399 1399 1399 1398 1398 1398 1397 1397 1396
1467 1465 1463 1461 1459 1456 1453 1450 1447 1444 1441 1438 1435 1432 1428 1426 1423 1421 1421 1420 1419 1419 1419 1420 1420 1421 1421 1421 1421 1421 1422 1422 1423 1424 1425 1425 1424 1424 1423 1423 1423 1422 1421 1421 1420 1419 1419 1418 1417 1416 1415 1415 1414 1414 1413 1412 1411 1411 1410 1410 1408 1406 1405 1404 1403 1401 1400 1399 1398 1398 1397 1397 1397 1396 1396 1395 1395 1394 1394 1394 1393 1393 1393 1392 1392
1467 1464 1462 1459 1457 1454 1451 1447 1444 1441 1438 1435 1432 1429 1426 1424 1421 1419 1418 1417 1416 1417 1417 1418 1418 1418 1418 1418 1418 1418 1419 1419 1420 1421 1421 1421 1421 1420 1420 1420 1419 1419 1418 1417 1417 1416 1415 1415 1414 1413 1412 1411 1411 1411 1410 1409 1408 1407 1408 1407 1406 1404 1402 1400 1399 1398 1397 1396 1395 1394 1394 1393 1393 1393 1392 1391 1390 1390 1389 1389 1388 1388 1387 1386 1386
1466 1463 1461 1458 1454 1451 1447 1444 1441 1437 1435 1432 1430 1427 1424 1422 1419 1417 1415 1415 1415 1415 1416 1415 1415 1414 1414 1415 1415 1415 1416 1416 1417 1418 1418 1418 1417 1417 1417 1417 1416 1415 1414 1414 1413 1413 1412 1411 1411 1409 1408 1407 1407 1407 1406 1405 1405 1404 1405 1405 1403 1400 1398 1396 1395 1394 1393 1393 1392 1391 1390 1389 1389 1388 1388 1387 1386 1385 1384 1384 1383 1382 1381 1381 1381
1464 1461 1458 1455 1451 1447 1444 1441 1438 1435 1432 1429 1427 1424 1421 1418 1416 1415 1414 1414 1414 1414 1413 1412 1411 1411 1411 1412 1413 1413 1413 1414 1414 1415 1414 1414 1414 1414 1414 1413 1412 1412 1411 1410 1410 1409 1408 1408 1407 1406 1405 1404 1404 1404 1403 1402 1401 1401 1401 1400 1398 1396 1394 1392 1391 1390 1390 1389 1388 1388 1386 1385 1384 1384 1384 1384 1383 1381 1380 1379 1378 1377 1376 1376 1375
1463 1459 1456 1453 1449 1446 1442 1439 1436 1432 1429 1426 1423 1421 1419 1416 1415 1415 1414 1414 1413 1412 1411 1409 1408 1408 1409 1410 1411 1411 1411 1411 1411 1412 1411 1411 1411 1410 1410 1410 1409 1408 1407 1407 1406 1405 1405 1404 1404 1403 1401 1400 1400 1401 1400 1398 1398 1397 1397 1396 1393 1391 1390 1388 1387 1387 1386 1386 1385 1384 1383 1381 1381 1380 1379 1379 1379 1378 1377 1375 1374 1373 1372 1371 1370
1461 1458 1455 1451 1448 1445 1441 1437 1433 1430 1427 1425 1422 1420 1418 1417 1416 1415 1414 1413 1412 1410 1409 1407 1406 1407 1408 1409 1409 1409 1409 1409 1409 1409 1408 1408 1408 1407 1407 1406 1405 1404 1404 1403 1402 1402 1401 1400 1400 1399 1398 1396 1396 1397 1396 1395 1394 1394 1393 1392 1389 1387 1386 1384 1384 1383 1383 1382 1381 1380 1379 1378 1377 1376 1375 1375 1374 1374 1373 1372 1370 1369 1368 1366 1365
1459 1456 1453 1450 1446 1443 1440 1436 1433 1430 1427 1425 1423 1421 1419 1418 1416 1415 1413 1412 1410 1409 1408 1406 1406 1406 1407 1407 1407 1407 1406 1406 1406 1406 1405 1405 1405 1404 1404 1403 1402 1401 1400 1400 1399 1398 1397 1397 1396 1395 1394 1393 1392 1393 1392 1391 1390 1390 1389 1388 1385 1383 1382 1381 1380 1379 1378 1377 1377 1376 1375 1374 1373 1372 1371 1371 1370 1370 1369 1367 1366 1364 1363 1361 1359
1458 1454 1451 1448 1445 1442 1438 1435 1432 1429 1426 1424 1422 1420 1419 1417 1415 1413 1412 1410 1409 1408 1406 1406 1406 1406 1405 1405 1405 1405 1404 1404 1403 1403 1403 1402 1401 1401 1400 1400 1399 1397 1396 1396 1395 1394 1393 1393 1393 1392 1391 1389 1388 1388 1388 1387 1386 1386 1386 1384 1382 1380 1379 1377 1376 1375 1374 1373 1373 1372 1371 1371 1369 1369 1368 1367 1367 1366 1365 1363 1362 1360 1357 1355 1354
1456 1453 1450 1446 1443 1440 1437 1434 1431 1428 1426 1423 1421 1419 1417 1415 1413 1412 1411 1409 1408 1407 1406 1405 1405 1404 1404 1403 1403 1402 1402 1401 1401 1400 1400 1399 1398 1398 1397 1396 1395 1394 1393 1392 1391 1390 1389 1389 1389 1388 1387 1386 1384 1384 1384 1383 1382 1382 1382 1381 1379 1377 1376 1375 1373 1372 1370 1369 1369 1368 1367 1366 1366 1365 1364 1363 1362 1362 1361 1359 1357 1355 1352 1351 1350
1454 1451 1447 1444 1441 1439 1436 1433 1430 1427 1424 1422 1420 1418 1415 1413 1412 1411 1410 1408 1407 1406 1405 1404 1403 1403 1402 1401 1401 1400 1399 1398 1398 1397 1397 1396 1395 1395 1394 1393 1392 1391 1389 1388 1388 1387 1386 1385 1385 1384 1383 1382 1381 1380 1380 1379 1378 1378 1378 1378 1376 1374 1373 1372 1370 1369 1368 1366 1364 1363 1362 1362 1361 1360 1360 1359 1358 1357 1356 1354 1351 1350 1349 1348 1346
1452 1448 1445 1442 1439 1436 1434 1431 1428 1425 1422 1420 1418 1416 1414 1412 1411 1410 1409 1407 1406 1405 1403 1402 1402 1401 1400 1399 1398 1397 1397 1396 1395 1394 1393 1393 1392 1391 1390 1389 1388 1387 1386 1385 1384 1383 1382 1381 1381 1381 1379 1379 1378 1377 1376 1375 1374 1374 1374 1373 1372 1371 1370 1369 1367 1366 1364 1361 1360 1359 1358 1358 1357 1356 1356 1355 1354 1353 1351 1348 1346 1345 1344 1342 1339
1448 1445 1442 1439 1436 1434 1431 1428 1426 1423 1421 1419 1417 1415 1413 1412 1410 1409 1407 1406 1404 1403 1402 1401 1400 1399 1398 1397 1396 1395 1394 1393 1392 1391 1390 1389 1389 1388 1387 1386 1385 1383 1382 1381 1380 1380 1378 1377 1376 1376 1376 1375 1374 1373 1372 1371 1370 1370 1369 1369 1369 1368 1367 1366 1364 1361 1359 1357 1356 1355 1354 1354 1353 1353 1351 1350 1349 1347 1344 1342 1341 1340 1337 1334 1332
1446 1443 1440 1438 1435 1432 1429 1427 1424 1422 1420 1419 1417 1415 1413 1411 1409 1407 1406 1404 1403 1402 1400 1399 1398 1397 1396 1395 1393 1392 1392 1391 1390 1389 1388 1387 1386 1385 1384 1383 1382 1380 1379 1377 1377 1376 1375 1373 1372 1371 1371 1371 1370 1369 1368 1367 1367 1366 1365 1365 1364 1364 1363 1362 1359 1356 1355 1354 1352 1351 1351 1350 1349 1348 1347 1345 1343 1341 1340 1338 1337 1335 1332 1329 1328
1445 1442 1438 1436 1433 1430 1428 1425 1423 1421 1419 1418 1416 1413 1411 1409 1407 1405 1404 1403 1401 1400 1398 1397 1396 1395 1393 1392 1391 1390 1389 1388 1388 1386 1385 1384 1383 1382 1381 1380 1379 1377 1376 1374 1374 1373 1371 1370 1368 1367 1366 1366 1366 1365 1364 1364 1363 1362 1361 1361 1360 1359 1358 1357 1355 1352 1351 1350 1349 1348 1347 1346 1344 1343 1341 1340 1338 1337 1335 1334 1332 1330 1328 1326 1324
1442 1439 1436 1433 1430 1428 1426 1423 1421 1420 1418 1416 1414 1412 1409 1407 1406 1404 1402 1401 1399 1398 1396 1395 1394 1392 1391 1390 1388 1387 1387 1386 1385 1383 1382 1381 1380 1378 1377 1376 1375 1374 1373 1371 1370 1369 1368 1366 1364 1363 1362 1362 1361 1361 1360 1360 1359 1358 1357 1356 1355 1355 1354 1352 1351 1349 1347 1346 1345 1344 1343 1341 1339 1338 1337 1335 1334 1333 1331 1330 1328 1326 1324 1321 1320
1441 1438 1434 1431 1429 1426 1424 1422 1420 1418 1416 1414 1412 1410 1408 1406 1404 1402 1401 1399 1397 1396 1394 1393 1391 1390 1389 1387 1386 1385 1384 1383 1382 1380 1379 1378 1377 1376 1374 1373 1372 1371 1370 1368 1367 1365 1364 1363 1361 1360 1359 1358 1357 1357 1356 1356 1355 1354 1353 1352 1351 1350 1349 1347 1346 1344 1343 1341 1340 1339 1338 1337 1336 1334 1333 1332 1331 1329 1327 1325 1323 1321 1319 1318 1316
1439 1436 1433 1430 1428 1425 1423 1421 1418 1416 1414 1412 1410 1408 1406 1404 1402 1401 1399 1397 1395 1394 1392 1390 1389 1388 1386 1385 1383 1382 1381 1379 1378 1377 1376 1375 1374 1373 1371 1370 1369 1368 1366 1365 1364 1362 1361 1360 1359 1357 1356 1354 1353 1352 1352 1352 1351 1350 1348 1347 1346 1345 1343 1342 1340 1339 1338 1336 1335 1334 1333 1332 1332 1330 1329 1328 1327 1325 1323 1321 1319 1317 1315 1314 1312
1437 1434 1432 1429 1427 1424 1422 1419 1417 1415 1413 1411 1409 1407 1405 1403 1401 1399 1397 1395 1393 1392 1390 1388 1387 1385 1384 1382 1381 1379 1378 1376 1375 1374 1373 1372 1371 1370 1368 1366 1366 1365 1364 1362 1360 1359 1358 1357 1356 1354 1353 1351 1348 1347 1348 1348 1347 1346 1344 1343 1341 1340 1339 1338 1337 1336 1335 1333 1332 1331 1329 1328 1327 1326 1324 1323 1322 1320 1318 1316 1315 1313 1311 1310 1308
1436 1433 1431 1428 1426 1423 1421 1418 1416 1414 1412 1409 1407 1406 1403 1401 1400 1397 1395 1394 1391 1389 1388 1386 1385 1383 1381 1380 1378 1377 1375 1374 1372 1371 1370 1369 1368 1367 1366 1364 1362 1361 1360 1359 1358 1356 1355 1355 1353 1351 1350 1348 1345 1343 1343 1344 1343 1343 1342 1340 1339 1338 1337 1336 1335 1334 1332 1330 1328 1326 1325 1324 1323 1322 1320 1319 1317 1315 1313 1312 1310 1309 1307 1306 1304
1434 1431 1429 1427 1424 1422 1419 1417 1414 1412 1410 1408 1406 1404 1402 1400 1398 1396 1394 1392 1390 1388 1386 1384 1383 1381 1379 1377 1376 1374 1373 1371 1370 1368 1367 1365 1364 1363 1363 1362 1361 1359 1358 1357 1356 1355 1354 1354 1352 1349 1347 1346 1343 1341 1341 1340 1340 1339 1338 1337 1336 1335 1334 1333 1331 1329 1327 1325 1324 1322 1321 1321 1320 1318 1316 1315 1313 1311 1309 1308 1306 1304 1303 1302 1301